COSMOS 1691 DEB, 16267

Orbit data source: Space-Track

COSMOS 1691 DEB, 16267 is space debris in LEO originally from a launch on Wed, 09 Oct 1985 UTC launched from the Plesetsk Missile And Space Complex (PKMTR). Debris objects in space refer to the collection of defunct objects orbiting the Earth. Examples of debris include non-operational satellites, rocket bodies, and fragments generated from explosions, collisions, or faulty payload assembly.

Loading next visibility...
Identifier
16267, 1985-094L
Orbit
LEO
Country
Flag of CISCIS
Related business
Manufacturer
Unknown
Mission
Spacecraft
Bus & Motor
Unknown
Mass
Unknown
Launch date (UTC)
1985-10-09 (40 years ago)
Launch vehicle
Unknown
Launch site
Plesetsk Missile And Space Complex (PKMTR)
Object type
Payload
Rocket body
Debris
Shape & HBR
Unknown shape, 0.1 m
Radar Cross Section
Small (<0.1 m²)

Expand to show TLE details & history
Last TLE update: 2 days ago

TLE from 2 days ago
0 COSMOS 1691 DEB
1 16267U 85094L   25339.93435735  .00004691  00000-0  11696-1 0  9993
2 16267  82.6288 289.1656 0052010 256.7871 178.8392 13.19166225518906
Epoch: 2025-12-05T22:25Z
TLE epoch observation values (Epoch: 2025-12-05T22:25:28.475Z)
Latitude
73.95411°
Longitude
-95.58708°
Altitude
1,239.941 km
Speed
7.222 km/s
True Right ascension
21h 03m 00s
True Declination
73° 52' 06"
Sunlit
Object was in daylight at epoch
Visualization orbit readout
Latitude
Unknown
Longitude
Unknown
Altitude
Unknown
Speed
Unknown
Apparent Right ascension
Unknown
Apparent Declination
Unknown
Sunlit
N/A
Visualization observer readout
Local Sidereal Time
16:20:43
Azimuth
Unknown
Elevation
Unknown
Doppler factor
Unknown
Orbital elements
Apogee altitude
1,224.482 km
Perigee altitude
1,145.808 km
Semi-major axis
7,563.282 km
Eccentricity
0.0052
Inclination
82.6288°
RAAN
289.1656°
Arg. of periapsis
256.7871°
True anomaly
178.8512°
Mean anomaly
178.8392°
Eccentric anomaly
178.84521°
Mean motion
3.29972 °/min
Orbital period
109.1 mins
BSTAR
0.011696
Loading maneuver chart data...
Computing Atmospheric mass density...
Loading historical data...
Loading historical data...
Loading historical data...
Loading historical data...
Loading historical data...
Loading historical data...
Loading historical data...

Documentation

Showing up to 5 results
|